Home   Weather   Pécs   Past weeks

Flag for Hungary Past Weather in Pécs, Hungary — Yesterday and Last 2 Weeks

Now
87 °F

Passing clouds.


Feels Like: 87 °F
Forecast: 66 / 98 °F
Wind: 2 mph from Northwest

Location: Pecs / Pogany

Current Time: Jul 21, 2017 at 6:55:29 pm

Latest Report: Jul 21, 2017 at 6:00 pm


Visibility: 37 mi

Pressure: 29.89 "Hg

Humidity: 39%

Dew Point: 59 °F

Location of PécsLocation

Past Weather in Pécs — Graph

°F

Pécs Temperature Yesterday

Maximum temperature yesterday: 90 °F (at 5:00 pm)
Minimum temperature yesterday: 70 °F (at 2:00 am)
Average temperature yesterday: 82 °F

High & Low Weather Summary for the Past Weeks

 TemperatureHumidityPressure
High95 °F (Jul 10, 3:00 pm)95% (Jul 12, 6:00 am)30.19 "Hg (Jul 12, 6:00 am)
Low55 °F (Jul 14, 4:00 am)29% (Jul 17, 5:00 pm)29.77 "Hg (Jul 10, 7:00 pm)
Average74 °F55%29.98 "Hg
* Reported Jul 6 5:00 pm — Jul 21 5:00 pm, Pécs. Weather by CustomWeather, © 2017

Note: Actual official high and low records may vary slightly from our data, if they occured in-between our weather recording intervals... More about our weather records

Advertising

Pécs Weather History for the Previous 24 Hours

Scroll right to see more
 ConditionsComfort  
Time TempWeatherWind HumidityBarometerVisibility
5:00 pm
Fri, Jul 21
87 °FPassing clouds.3 mph43%29.90 "Hg37 mi
4:00 pm87 °FPassing clouds.3 mph40%29.91 "Hg37 mi
3:00 pm85 °FPassing clouds.2 mph46%29.92 "Hg37 mi
2:00 pm84 °FScattered clouds.5 mph48%29.94 "Hg37 mi
1:00 pm83 °FPassing clouds.3 mph49%29.94 "Hg37 mi
12:00 pm83 °FPassing clouds.2 mph45%29.94 "Hg31 mi
11:00 am81 °FPassing clouds.3 mph51%29.94 "Hg31 mi
10:00 am79 °FPassing clouds.2 mph59%29.94 "Hg31 mi
9:00 am76 °FScattered clouds.3 mph61%29.93 "Hg31 mi
8:00 am74 °FScattered clouds.5 mph64%29.92 "Hg31 mi
7:00 am71 °FMild.5 mph69%29.90 "HgN/A
6:00 am67 °FMild.1 mph77%29.88 "HgN/A
5:00 am71 °FMild.5 mph68%29.86 "HgN/A
4:00 am73 °FMild.1 mph63%29.85 "HgN/A
3:00 am73 °FMild.1 mph63%29.85 "HgN/A
2:00 am73 °FMild.1 mph61%29.85 "HgN/A
1:00 am74 °FMild.No wind59%29.85 "HgN/A
12:00 am75 °FMild.1 mph58%29.84 "HgN/A
11:00 pm
Thu, Jul 20
76 °FMild.2 mph55%29.84 "HgN/A
10:00 pm75 °FMild.2 mph60%29.84 "HgN/A
9:00 pm83 °FWarm.1 mph43%29.82 "HgN/A
8:00 pm86 °FPleasantly warm.1 mph40%29.80 "HgN/A
7:00 pm89 °FPassing clouds.1 mph33%29.80 "Hg37 mi
6:00 pm90 °FPassing clouds.1 mph33%29.80 "Hg37 mi
Weather by CustomWeather, © 2017

See weather overviewHow to use our weather pages